Tracking 26922 objects as of 29-Jan-2023
HD Live streaming from Space Station
objects crossing your sky now

CUTE-LASP

Track CUTE-LASP now!
10-day predictions


NORAD ID: 49263
Int'l Code: 2021-088D
Perigee: 543.9 km
Apogee: 570.7 km
Inclination: 97.6 °
Period: 95.7 minutes
Semi major axis: 6928 km
RCS: Unknown
Launch date: September 27, 2021
Source: United States (US)
Launch site: AIR FORCE WESTERN TEST RANGE (AFWTR)
Your satellite tracking list
Your tracking list is empty




NASA's NSSDC Master Catalog

Two Line Element Set (TLE):
1 49263U 21088D   23029.19395018  .00007056  00000-0  49353-3 0  9990
2 49263  97.5635  97.5843 0019381  20.5539 339.6463 15.05439922 73355
Source of the keplerian elements: AMSAT